Regional Weather Roundup
Issued by NWS Bismarck, ND

Home | Current Version | Previous Version | Text Only | Print | Product List | Glossary On
Versions: 1 2 3 4 5 6 7 8 9 10 11 12 13 14 15 16 17 18 19 20 21 22 23 24 25 26 27 28 29 30 31 32 33 34 35 36 37 38 39 40 41 42 43 44 45 46 47 48 49 50
000
ASUS43 KBIS 020459
RWRBIS

NWR BROADCAST TEXT
NATIONAL WEATHER SERVICE BISMARCK ND
1200 AM CDT TUE SEP 02 2014

NOTE: "FAIR" INDICATES FEW OR NO CLOUDS BELOW 12,000 FEET WITH NO
SIGNIFICANT WEATHER AND/OR OBSTRUCTIONS TO VISIBILITY.


CITY           SKY/WX    TMP DP  RH WIND       PRES   REMARKS
WILLISTON      PTCLDY    55  49  80 SW5       29.82F
MINOT          CLEAR     55  47  74 SW9       29.80F
MINOT AFB      NOT AVBL
BISMARCK       CLEAR     55  50  83 SW5       29.87R
DICKINSON      CLEAR     51  45  79 S10       29.88S
GARRISON         N/A     53  51  93 W6        29.84R
HETTINGER ARPT CLEAR     52  45  77 CALM      29.93S
JAMESTOWN      NOT AVBL
BEACH            N/A     48  46  93 S3        29.90S
CARRINGTON     FAIR      55  50  82 SW6       29.83S
CROSBY         MOCLDY    55  50  82 S7        29.81S
HARVEY         FAIR      50  48  93 SW8       29.82S
HAZEN          FAIR      46  45  93 CALM      29.86S
LINTON         FAIR      50  48  93 SW3       29.88R
MANDAN         FAIR      55  48  76 SW9       29.88S
OAKES            N/A     57  55  94 W5        29.84R
RUGBY          FAIR      50  48  93 SW7       29.80R
STANLEY        MOCLDY    50  48  93 SW6       29.83F
TIOGA          FAIR      48  48 100 CALM      29.86S
WATFORD CITY   FAIR      55  46  71 S5        29.83S
$$

CITY           SKY/WX    TMP DP  RH WIND       PRES   REMARKS
GRAND FORKS    CLEAR     55  50  83 SW5       29.76F
GRAND FORKS AF NOT AVBL
DEVILS LAKE    CLEAR     61  50  67 SW9       29.78S
FARGO          PTCLDY    57  53  86 S6        29.80S
CAVALIER       FAIR      55  48  76 W6        29.74F
GRAFTON        FAIR      54  48  82 SW8       29.75F
GWINNER        CLEAR     57  55  94 W8        29.84S
LANGDON        FAIR      48  46  93 SW8       29.77S
ROLLA          FAIR      52  48  87 W9        29.79S
WALHALLA         N/A     57  48  72 SW6       29.75S
$$

CITY           SKY/WX    TMP DP  RH WIND       PRES   REMARKS
ABERDEEN       CLOUDY    54  54 100 SW5       29.86R
MOBRIDGE       CLEAR     52  52 100 W3        29.87S
BUFFALO          N/A     52  45  77 SW7       29.88F
RAPID CITY     CLEAR     50  47  89 NW3       30.01R
GLASGOW        MOCLDY    63  47  55 S8        29.80F
SIDNEY         PTCLDY    52  46  82 CALM      29.86S
WOLF POINT     CLOUDY    57  51  80 CALM      29.82F
GLENDIVE       MOCLDY    52  46  82 SW3       29.89F
MILES CITY     CLEAR     57  41  55 S5        29.89F
BAKER          PTCLDY    53  44  71 CALM      29.92F
$$

CITY           SKY/WX    TMP DP  RH WIND       PRES   REMARKS
BILLINGS       CLEAR     61  38  42 SW6       29.94S
GREAT FALLS    CLEAR     52  38  58 SW8       29.92S
$$



USA.gov is the U.S. government's official web portal to all federal, state and local government web resources and services.